Marble, NC

9:32 AM EST on December 03, 2016 (GMT -0500)
Andrews

Weather History for KRHP - December, 2013

Change the Weather History Date:

Monday, December 9, 2013

  Actual Average (KTYS) Record (KTYS)
Temperature  
Mean Temperature 50 °F 42 °F  
Max Temperature 54 °F 51 °F 72 °F (1919)
Min Temperature 47 °F 33 °F 5 °F (1917)
Degree Days  
Heating Degree Days 14 23  
Month to date heating degree days 197  
Since 1 July heating degree days 878  
Cooling Degree Days 0 0  
Month to date cooling degree days 0  
Year to date cooling degree days 1526  
Moisture  
Dew Point 51 °F    
Average Humidity 96    
Maximum Humidity 100    
Minimum Humidity 88    
Precipitation  
Precipitation 0.08 in 0.16 in 2.22 in (1978)
Month to date precipitation 1.39  
Year to date precipitation 44.75  
Snow  
Snow 0.00 in 0.00 in - ()
Month to date snowfall 0.1  
Since 1 July snowfall 0.1  
Snow Depth -    
Sea Level Pressure  
Sea Level Pressure 30.09 in    
Wind  
Wind Speed 2 mph (West)    
Max Wind Speed 12 mph    
Max Gust Speed -    
Visibility 8 miles    
Events Rain    
T = Trace of Precipitation, MM = Missing Value Source: NWS Daily Summary

Daily Weather History Graph

Daily Weather History Graph

Search for Another Location

Airport or City:

Trip Planner

Search our weather history database for the weather conditions in past years. The results will help you decide how hot, cold, wet, or windy it might be!

Date:

Astronomy

Dec. 09, 2013 Rise Set
Actual Time 7:32 AM EST 5:23 PM EST
Civil Twilight 7:04 AM EST 5:51 PM EST
Nautical Twilight 6:32 AM EST 6:23 PM EST
Astronomical Twilight 6:01 AM EST 6:53 PM EST
Moon 12:38 PM EST (12/9) 12:00 AM EST (12/9)
Length of Visible Light 10h 47m
Length of Day
9h 50m
Waxing Crescent, 51% of the Moon is Illuminated
Dec 9
Waxing Crescent
Dec 17
Full
Dec 25
Last Quarter
Jan 1
New
Jan 7
First Quarter

Hourly Weather History & Observations

Time (EST) Temp. Dew Point Humidity Pressure Visibility Wind Dir Wind Speed Gust Speed Precip Events Conditions
12:15 AM 48.6 °F 48.4 °F 99% 30.10 in 7.0 mi Calm Calm - N/A Rain Light Rain
12:35 AM 48.9 °F 48.6 °F 99% 30.10 in 10.0 mi Calm Calm - N/A Rain Rain
12:55 AM 49.1 °F 49.1 °F 100% 30.09 in 7.0 mi Calm Calm - N/A Rain Rain
1:15 AM 50.0 °F 49.6 °F 99% 30.08 in 10.0 mi WNW 4.6 mph - 0.02 in Rain Light Rain
1:35 AM 50.4 °F 50.2 °F 99% 30.07 in 10.0 mi Calm Calm - 0.03 in Rain Rain
1:55 AM 51.1 °F 50.9 °F 99% 30.07 in 10.0 mi Calm Calm - 0.05 in   Light Drizzle
2:15 AM 53.2 °F 52.2 °F 96% 30.07 in 5.0 mi Calm Calm - 0.03 in Rain Rain
2:35 AM 52.7 °F 52.3 °F 99% 30.08 in 5.0 mi SSE 4.6 mph - 0.03 in Rain Rain
2:55 AM 53.8 °F 53.1 °F 97% 30.09 in 7.0 mi Calm Calm - 0.03 in Rain Light Rain
3:15 AM 54.1 °F 52.9 °F 95% 30.08 in 10.0 mi Calm Calm - N/A   Drizzle
3:35 AM 53.2 °F 52.9 °F 99% 30.07 in 10.0 mi Calm Calm - N/A Rain Light Rain
3:55 AM 53.1 °F 52.7 °F 99% 30.07 in 10.0 mi Calm Calm - N/A Rain Light Rain
4:15 AM 53.1 °F 52.9 °F 99% 30.08 in 3.0 mi Calm Calm - N/A Rain Rain
4:35 AM 53.1 °F 52.9 °F 99% 30.06 in 7.0 mi Calm Calm - N/A Rain Heavy Rain
4:55 AM 53.6 °F 53.1 °F 98% 30.06 in 7.0 mi Calm Calm - N/A Rain Rain
5:35 AM 53.6 °F 53.1 °F 98% 30.06 in 7.0 mi Calm Calm - N/A Rain Rain
5:55 AM 53.6 °F 53.1 °F 98% 30.06 in 5.0 mi Calm Calm - N/A Rain Light Rain
6:15 AM 53.8 °F 53.1 °F 97% 30.06 in 4.0 mi NW 8.1 mph - N/A Rain Rain
6:35 AM 54.5 °F 52.7 °F 94% 30.07 in 7.0 mi WNW 11.5 mph - N/A Rain Light Rain
6:55 AM 54.5 °F 52.3 °F 92% 30.08 in 7.0 mi WNW 11.5 mph - N/A   Drizzle
7:15 AM 54.1 °F 52.5 °F 94% 30.09 in 7.0 mi WNW 11.5 mph - N/A Rain Light Rain
7:35 AM 53.6 °F 52.3 °F 95% 30.10 in 4.0 mi West 9.2 mph - N/A Rain Rain
7:55 AM 53.1 °F 52.3 °F 97% 30.10 in 5.0 mi WNW 4.6 mph - N/A Rain Light Rain
8:15 AM 53.1 °F 52.0 °F 96% 30.10 in 7.0 mi West 5.8 mph - N/A Rain Light Rain
8:35 AM 52.9 °F 52.2 °F 97% 30.12 in 2.5 mi West 6.9 mph - N/A   Heavy Drizzle
8:55 AM 52.7 °F 52.3 °F 99% 30.12 in 1.8 mi West 3.5 mph - N/A   Heavy Drizzle
9:15 AM 52.7 °F 52.3 °F 99% 30.12 in 5.0 mi Calm Calm - N/A Rain Rain
9:35 AM 52.7 °F 52.2 °F 98% 30.12 in 3.0 mi Calm Calm - N/A Rain Light Rain
9:55 AM 52.7 °F 51.8 °F 97% 30.12 in 5.0 mi Calm Calm - N/A Rain Light Rain
10:15 AM 52.5 °F 51.4 °F 96% 30.14 in 10.0 mi WSW 4.6 mph - N/A Rain Rain
10:35 AM 52.7 °F 51.3 °F 95% 30.13 in 10.0 mi West 3.5 mph - N/A   Overcast
10:55 AM 52.7 °F 51.1 °F 94% 30.13 in 7.0 mi West 4.6 mph - N/A   Overcast
11:15 AM 52.3 °F 51.6 °F 97% 30.13 in 1.8 mi West 5.8 mph - N/A   Overcast
11:35 AM 52.7 °F 52.0 °F 97% 30.12 in 10.0 mi SW 3.5 mph - N/A   Overcast
11:55 AM 52.7 °F 52.0 °F 97% 30.12 in 10.0 mi SW 4.6 mph - N/A   Overcast
12:15 PM 53.6 °F 52.0 °F 94% 30.11 in 10.0 mi WSW 3.5 mph - N/A   Overcast
12:35 PM 53.6 °F 51.8 °F 94% 30.10 in 10.0 mi Calm Calm - N/A   Overcast
12:55 PM 53.6 °F 51.4 °F 92% 30.10 in 10.0 mi West 6.9 mph - N/A   Overcast
1:15 PM 53.8 °F 51.4 °F 92% 30.10 in 10.0 mi WSW 4.6 mph - N/A   Overcast
1:35 PM 53.8 °F 51.6 °F 92% 30.09 in 10.0 mi West 4.6 mph - N/A   Overcast
1:55 PM 53.8 °F 51.4 °F 92% 30.08 in 10.0 mi West 5.8 mph - N/A   Overcast
2:15 PM 54.0 °F 51.4 °F 91% 30.08 in 10.0 mi West 4.6 mph - N/A   Overcast
2:35 PM 54.0 °F 51.1 °F 90% 30.08 in 10.0 mi West 4.6 mph - N/A   Overcast
2:55 PM 54.0 °F 51.4 °F 91% 30.08 in 10.0 mi West 4.6 mph - N/A   Overcast
3:15 PM 54.0 °F 51.3 °F 91% 30.08 in 10.0 mi Calm Calm - N/A   Overcast
3:35 PM 54.0 °F 51.6 °F 92% 30.08 in 10.0 mi West 4.6 mph - N/A   Overcast
3:55 PM 54.7 °F 51.8 °F 90% 30.08 in 10.0 mi WNW 3.5 mph - N/A   Mostly Cloudy
4:15 PM 53.2 °F 51.3 °F 93% 30.09 in 10.0 mi West 3.5 mph - N/A   Scattered Clouds
4:35 PM 54.5 °F 51.1 °F 88% 30.09 in 10.0 mi NW 3.5 mph - N/A   Scattered Clouds
4:55 PM 53.6 °F 51.1 °F 91% 30.09 in 10.0 mi Calm Calm - N/A   Mostly Cloudy
5:15 PM 51.4 °F 50.4 °F 96% 30.09 in 10.0 mi Calm Calm - N/A   Overcast
5:35 PM 50.4 °F 49.6 °F 97% 30.09 in 10.0 mi Calm Calm - N/A   Scattered Clouds
5:55 PM 47.5 °F 47.1 °F 99% 30.09 in 1.2 mi Calm Calm - N/A   Scattered Clouds
6:15 PM 49.1 °F 49.1 °F 100% 30.09 in 10.0 mi Calm Calm - N/A   Mostly Cloudy
6:35 PM 48.9 °F 48.7 °F 99% 30.10 in 10.0 mi Calm Calm - N/A   Overcast
6:55 PM 49.8 °F 49.5 °F 99% 30.10 in 10.0 mi West 4.6 mph - N/A   Overcast
7:15 PM 50.5 °F 49.3 °F 95% 30.10 in 10.0 mi West 5.8 mph - N/A   Overcast
7:35 PM 50.4 °F 49.1 °F 95% 30.11 in 10.0 mi West 8.1 mph - N/A   Overcast
7:55 PM 49.8 °F 48.6 °F 95% 30.10 in 10.0 mi West 5.8 mph - N/A   Overcast
8:15 PM 49.5 °F 48.4 °F 96% 30.10 in 10.0 mi West 5.8 mph - N/A   Overcast
8:35 PM 49.3 °F 48.4 °F 97% 30.10 in 10.0 mi West 4.6 mph - N/A   Overcast
8:55 PM 49.1 °F 48.2 °F 97% 30.09 in 10.0 mi Calm Calm - N/A   Overcast
9:15 PM 49.1 °F 48.2 °F 97% 30.08 in 10.0 mi Calm Calm - N/A   Overcast
9:35 PM 48.7 °F 48.2 °F 98% 30.07 in 10.0 mi Calm Calm - N/A   Overcast
9:55 PM 48.7 °F 48.2 °F 98% 30.06 in 10.0 mi Calm Calm - N/A   Overcast
10:15 PM 48.7 °F 48.2 °F 98% 30.06 in 10.0 mi WSW 4.6 mph - N/A   Overcast
10:35 PM 48.6 °F 48.2 °F 99% 30.06 in 10.0 mi Calm Calm - N/A   Overcast
10:55 PM 48.4 °F 47.8 °F 98% 30.04 in 10.0 mi Calm Calm - N/A   Overcast
11:15 PM 48.4 °F 47.7 °F 97% 30.03 in 10.0 mi Calm Calm - N/A   Overcast
11:35 PM 48.4 °F 47.7 °F 97% 30.01 in 10.0 mi Calm Calm - N/A   Overcast
11:55 PM 48.4 °F 48.0 °F 99% 30.01 in 10.0 mi Calm Calm - N/A   Overcast